"2010-03-24 00:00:00",1788759,14.83,47.91,2.869,0.816,-54.27,99.2862,-2.519,-1.268,97.7,0,109.4,13.63,-1.78,9.9
"2010-03-24 00:00:30",1788760,14.91,48.34,2.46,0.72,-54.13,99.2862,-2.519,-1.269,97.8,0,109.4,13.63,-1.78,10.3
"2010-03-24 00:01:00",1788761,14.83,48.13,2.65,0.819,-54.27,99.2862,-2.519,-1.299,97.7,0,109.4,13.63,-1.78,10.1
"2010-03-24 00:01:30",1788762,14.87,47.5,3.828,0.735,-54.06,99.28393,-2.525,-1.259,97.7,0,109.4,13.63,-1.78,9.5
"2010-03-24 00:02:00",1788763,14.85,47.67,3.373,0.765,-54.21,99.27458,-2.548,-1.283,97.8,0,109.4,13.63,-1.81,9.7
"2010-03-24 00:02:30",1788764,14.9,48.32,1.856,0.737,-54.21,99.25957,-2.587,-1.303,97.8,0,109.4,13.63,-1.84,10.3
"2010-03-24 00:03:00",1788765,14.91,47.49,3.841,0.649,-54.14,99.25561,-2.597,-1.287,97.8,0,109.4,13.64,-1.85,9.5
"2010-03-24 00:03:30",1788766,14.86,47.45,3.889,0.735,-54.15,99.2522,-2.605,-1.289,97.8,0,109.4,13.63,-1.86,9.5
"2010-03-24 00:04:00",1788767,14.83,47.89,2.812,0.815,-54.21,99.2522,-2.605,-1.302,97.8,0,109.4,13.63,-1.86,9.9
"2010-03-24 00:04:30",1788768,14.91,48.12,2.639,0.719,-54.13,99.2522,-2.605,-1.321,97.8,0,109.4,13.63,-1.86,10.1
"2010-03-24 00:05:00",1788769,14.84,48.14,2.679,0.811,-54.27,99.25362,-2.602,-1.328,97.8,0,109.4,13.63,-1.86,10.1
"2010-03-24 00:05:30",1788770,14.83,48.14,2.683,0.82,-54.26,99.25277,-2.604,-1.319,97.8,0,109.4,13.62,-1.86,10.1
"2010-03-24 00:06:00",1788771,14.83,48.13,2.712,0.825,-54.26,99.25305,-2.603,-1.353,97.8,0,109.4,13.62,-1.86,10.1
"2010-03-24 00:06:30",1788772,14.96,47.95,3.21,0.625,-53.97,99.2539,-2.601,-1.343,97.8,0,109.4,13.62,-1.86,10.0
"2010-03-24 00:07:00",1788773,14.87,47.51,3.447,0.74,-54.2,99.25474,-2.599,-1.366,97.8,0,109.4,13.63,-1.86,9.5
"2010-03-24 00:07:30",1788774,14.87,47.94,2.82,0.739,-54.34,99.25277,-2.604,-1.343,97.8,0,109.4,13.62,-1.86,9.9
"2010-03-24 00:08:00",1788775,14.87,47.29,4.265,0.738,-54.05,99.25276,-2.604,-1.342,97.8,0,109.4,13.62,-1.86,9.3
"2010-03-24 00:08:30",1788776,14.95,48.36,2.454,0.626,-54.12,99.25275,-2.604,-1.376,97.8,0,109.4,13.63,-1.86,10.4
"2010-03-24 00:09:00",1788777,14.83,47.95,2.807,0.817,-54.27,99.25302,-2.603,-1.365,97.8,0,109.4,13.63,-1.86,10.0
"2010-03-24 00:09:30",1788778,14.88,47.95,3.214,0.74,-54.19,99.25274,-2.604,-1.351,97.8,0,109.4,13.63,-1.86,10.0
"2010-03-24 00:10:00",1788779,14.84,47.97,2.819,0.821,-54.26,99.25951,-2.587,-1.377,97.9,0,109.4,13.63,-1.84,10.0
"2010-03-24 00:10:30",1788780,15.01,48.01,3.218,0.511,-54.02,99.25895,-2.588,-1.357,97.9,0,109.4,13.63,-1.85,10.0
"2010-03-24 00:11:00",1788781,14.91,47.63,3.821,0.689,-54.1,99.2567,-2.594,-1.365,97.9,0,109.4,13.63,-1.85,9.6
"2010-03-24 00:11:30",1788782,14.89,48.18,2.615,0.737,-54.3,99.25809,-2.59,-1.364,97.9,0,109.4,13.63,-1.85,10.2
"2010-03-24 00:12:00",1788783,14.85,48.24,2.663,0.815,-54.23,99.25838,-2.59,-1.381,97.9,0,109.4,13.62,-1.85,10.2
"2010-03-24 00:12:30",1788784,14.96,48.22,2.638,0.636,-54.09,99.26008,-2.585,-1.375,97.9,0,109.4,13.63,-1.84,10.2
"2010-03-24 00:13:00",1788785,14.92,47.59,3.818,0.652,-54.1,99.2575,-2.592,-1.36,97.9,0,109.4,13.63,-1.85,9.6
"2010-03-24 00:13:30",1788786,14.92,47.59,3.808,0.653,-54.1,99.25156,-2.607,-1.36,97.9,0,109.4,13.63,-1.86,9.6
"2010-03-24 00:14:00",1788787,14.9,47.56,3.875,0.685,-54.03,99.2394,-2.638,-1.366,97.9,0,109.4,13.62,-1.90,9.6
"2010-03-24 00:14:30",1788788,14.92,47.95,3.317,0.717,-54.11,99.23257,-2.655,-1.381,97.9,0,109.3,13.63,-1.91,10.0
"2010-03-24 00:15:30",1788789,15,47.77,3.765,0.518,-54.02,99.22926,-2.664,-1.396,97.9,0,109.4,13.63,-1.92,9.8
"2010-03-24 00:16:00",1788790,14.96,47.37,4.209,0.624,-54.17,99.23002,-2.662,-1.401,97.9,0,109.4,13.63,-1.92,9.4
"2010-03-24 00:16:30",1788791,14.89,47.7,3.507,0.661,-54.17,99.23058,-2.661,-1.406,97.9,0,109.4,13.63,-1.92,9.7
"2010-03-24 00:17:00",1788792,14.92,47.38,4.19,0.648,-54.09,99.23255,-2.656,-1.411,97.9,0,109.4,13.63,-1.91,9.4
"2010-03-24 00:17:30",1788793,14.97,47.98,3.226,0.626,-54.01,99.23225,-2.656,-1.418,97.9,0,109.4,13.63,-1.91,10.0
"2010-03-24 00:18:00",1788794,14.92,47.99,3.229,0.717,-54.23,99.21329,-2.705,-1.428,97.9,0,109.4,13.63,-1.96,10.0
"2010-03-24 00:18:30",1788795,15,47.35,4.207,0.511,-54.09,99.20422,-2.728,-1.437,97.9,0,109.4,13.63,-1.99,9.3
"2010-03-24 00:19:00",1788796,14.99,47.29,4.261,0.513,-54.09,99.20137,-2.735,-1.452,97.9,0,109.4,13.63,-1.99,9.3
"2010-03-24 00:19:30",1788797,14.87,47.7,3.786,0.736,-54.02,99.20249,-2.732,-1.446,97.9,0,109.4,13.63,-1.99,9.7
"2010-03-24 00:20:00",1788798,14.99,47.94,3.212,0.599,-54.2,99.20361,-2.729,-1.462,97.9,0,109.4,13.64,-1.99,9.9
"2010-03-24 00:20:30",1788799,14.87,47.71,3.338,0.736,-54.16,99.20249,-2.732,-1.476,97.9,0,109.4,13.64,-1.99,9.7
"2010-03-24 00:21:00",1788800,14.95,47.31,4.207,0.542,-54.16,99.20446,-2.727,-1.474,97.9,0,109.4,13.64,-1.98,9.3
"2010-03-24 00:21:30",1788801,14.94,47.69,3.729,0.544,-54.02,99.20249,-2.732,-1.482,97.9,0,109.4,13.64,-1.99,9.7
"2010-03-24 00:22:00",1788802,14.95,47.48,3.831,0.624,-54.16,99.20418,-2.728,-1.488,97.9,0,109.5,13.64,-1.99,9.5
"2010-03-24 00:22:30",1788803,14.86,47.65,3.457,0.741,-54.24,99.2039,-2.729,-1.505,98,0,109.4,13.64,-1.99,9.7
"2010-03-24 00:23:00",1788804,14.82,47.92,2.759,0.817,-54.24,99.19878,-2.742,-1.507,98,0,109.4,13.64,-2.00,9.9
"2010-03-24 00:23:30",1788805,14.87,47.47,3.802,0.736,-53.94,99.18972,-2.765,-1.496,97.9,0,109.4,13.64,-2.02,9.5
"2010-03-24 00:24:00",1788806,14.95,47.85,3.244,0.627,-54.23,99.17896,-2.792,-1.519,98,0,109.4,13.63,-2.05,9.8
"2010-03-24 00:24:30",1788807,14.95,47.25,4.213,0.542,-54.14,99.17357,-2.806,-1.505,98,0,109.4,13.63,-2.06,9.2
"2010-03-24 00:25:00",1788808,14.95,47.22,4.202,0.554,-54.13,99.17046,-2.814,-1.555,98,0,109.4,13.63,-2.07,9.2
"2010-03-24 00:25:30",1788809,14.91,47.6,3.805,0.651,-54.06,99.17187,-2.81,-1.541,98,0,109.4,13.63,-2.07,9.6
"2010-03-24 00:26:00",1788810,14.95,47.43,3.788,0.552,-54.19,99.17187,-2.81,-1.539,98,0,109.5,13.63,-2.07,9.4
"2010-03-24 00:26:30",1788811,14.91,47.43,3.791,0.649,-54.15,99.17299,-2.807,-1.553,98,0,109.4,13.63,-2.07,9.4
"2010-03-24 00:27:00",1788812,14.86,47.44,3.799,0.677,-54.21,99.17383,-2.805,-1.565,98,0,109.4,13.63,-2.06,9.4
"2010-03-24 00:27:30",1788813,14.91,47.64,3.705,0.65,-54.04,99.17271,-2.808,-1.574,98,0,109.4,13.63,-2.07,9.6
"2010-03-24 00:28:00",1788814,14.99,47.44,3.801,0.512,-54.12,99.1693,-2.817,-1.577,98,0,109.4,13.63,-2.07,9.4
"2010-03-24 00:28:30",1788815,14.91,47.42,3.794,0.648,-54.13,99.16079,-2.838,-1.573,98,0,109.4,13.63,-2.10,9.4
"2010-03-24 00:29:00",1788816,14.87,47.63,3.378,0.74,-54.2,99.15711,-2.848,-1.607,98,0,109.4,13.63,-2.11,9.6
"2010-03-24 00:29:30",1788817,14.84,48.23,1.917,0.813,-54.19,99.15653,-2.849,-1.606,98,0,109.4,13.63,-2.11,10.2
"2010-03-24 00:30:00",1788818,14.92,47.8,2.86,0.72,-54.25,99.15795,-2.846,-1.613,98,0,109.4,13.63,-2.10,9.8
"2010-03-24 00:30:30",1788819,14.89,47.62,3.325,0.734,-54.11,99.15569,-2.851,-1.593,98,0,109.4,13.63,-2.11,9.6
"2010-03-24 00:31:00",1788820,14.93,47.42,3.8,0.647,-54.03,99.15992,-2.841,-1.603,98,0,109.4,13.63,-2.10,9.4
"2010-03-24 00:31:30",1788821,14.97,47.62,3.704,0.539,-54.03,99.15651,-2.849,-1.601,98,0,109.4,13.63,-2.11,9.6
"2010-03-24 00:32:00",1788822,15,47.2,4.2,0.514,-54.11,99.15225,-2.86,-1.626,98,0,109.4,13.63,-2.12,9.2
"2010-03-24 00:32:30",1788823,14.96,47.22,4.221,0.544,-54.12,99.14574,-2.877,-1.626,98,0,109.4,13.63,-2.13,9.2
"2010-03-24 00:33:00",1788824,14.92,47.4,3.847,0.646,-54.12,99.14462,-2.88,-1.613,98,0,109.4,13.63,-2.14,9.4
"2010-03-24 00:33:30",1788825,14.86,47.83,3.224,0.767,-54.04,99.14601,-2.876,-1.621,98,0,109.4,13.63,-2.13,9.8
"2010-03-24 00:34:00",1788826,14.92,47.79,2.855,0.716,-54.26,99.14433,-2.88,-1.629,98,0,109.4,13.63,-2.14,9.8
"2010-03-24 00:34:30",1788827,14.88,47.61,3.351,0.734,-54.11,99.14601,-2.876,-1.626,98,0,109.4,13.63,-2.13,9.6
"2010-03-24 00:35:00",1788828,14.87,47.83,2.775,0.737,-54.27,99.14517,-2.878,-1.646,98,0,109.4,13.63,-2.14,9.8
"2010-03-24 00:35:30",1788829,14.87,47.82,3.24,0.738,-54.05,99.14517,-2.878,-1.653,98,0,109.4,13.63,-2.14,9.8
"2010-03-24 00:36:00",1788830,14.95,47.61,3.375,0.622,-54.21,99.14517,-2.878,-1.657,98,0,109.4,13.65,-2.14,9.6
"2010-03-24 00:36:30",1788831,14.83,47.78,2.852,0.811,-54.28,99.14629,-2.875,-1.65,98,0,109.4,13.65,-2.13,9.8
"2010-03-24 00:37:00",1788832,14.83,47.8,2.868,0.816,-54.27,99.14376,-2.882,-1.675,98,0,109.4,13.65,-2.14,9.8
"2010-03-24 00:37:30",1788833,14.86,47.81,3.198,0.734,-54.07,99.14006,-2.891,-1.667,98,0,109.4,13.65,-2.15,9.8
"2010-03-24 00:38:00",1788834,14.94,47.61,3.333,0.624,-54.21,99.13044,-2.916,-1.674,98,0,109.4,13.65,-2.17,9.6
"2010-03-24 00:38:30",1788835,14.87,47.61,3.339,0.735,-54.21,99.12534,-2.929,-1.674,98,0,109.4,13.65,-2.19,9.6
"2010-03-24 00:39:00",1788836,14.9,47.41,3.79,0.645,-54.14,99.12194,-2.937,-1.683,98,0,109.4,13.65,-2.20,9.4
"2010-03-24 00:39:30",1788837,14.86,48,2.652,0.736,-54.14,99.11626,-2.952,-1.694,98,0,109.4,13.65,-2.21,10.0
"2010-03-24 00:40:00",1788838,14.94,47.58,3.37,0.624,-54.22,99.11258,-2.961,-1.699,98,0,109.4,13.65,-2.22,9.6
"2010-03-24 00:40:30",1788839,14.86,47.62,3.412,0.737,-54.21,99.11117,-2.965,-1.719,98,0,109.4,13.65,-2.22,9.6
"2010-03-24 00:41:00",1788840,14.85,47.65,3.406,0.74,-54.21,99.11033,-2.967,-1.72,98,0,109.4,13.64,-2.23,9.7
"2010-03-24 00:41:30",1788841,14.85,48,3.156,0.752,-54.06,99.11033,-2.967,-1.697,98,0,109.4,13.64,-2.23,10.0
"2010-03-24 00:42:00",1788842,14.89,47.68,3.427,0.719,-54.21,99.11172,-2.963,-1.719,98,0,109.4,13.64,-2.22,9.7
"2010-03-24 00:42:30",1788843,14.81,48.12,2.628,0.815,-54.27,99.11089,-2.965,-1.722,98.1,0,109.4,13.64,-2.22,10.1
"2010-03-24 00:43:00",1788844,14.81,48.09,2.673,0.813,-54.27,99.11145,-2.964,-1.744,98.1,0,109.4,13.64,-2.22,10.1
"2010-03-24 00:43:30",1788845,14.84,47.91,2.781,0.76,-54.14,99.11033,-2.967,-1.749,98,0,109.4,13.64,-2.23,9.9
"2010-03-24 00:44:00",1788846,14.89,48.09,2.697,0.718,-54.28,99.11117,-2.965,-1.738,98,0,109.5,13.64,-2.22,10.1
"2010-03-24 00:44:30",1788847,14.81,48.31,1.892,0.813,-54.28,99.11089,-2.965,-1.749,98.1,0,109.4,13.64,-2.22,10.3
"2010-03-24 00:45:00",1788848,14.85,47.72,3.321,0.735,-54.21,99.11229,-2.962,-1.724,98,0,109.4,13.64,-2.22,9.7
"2010-03-24 00:45:30",1788849,14.85,47.72,3.341,0.737,-54.05,99.11369,-2.958,-1.737,98,0,109.4,13.64,-2.22,9.7
"2010-03-24 00:46:00",1788850,14.89,48.02,2.704,0.717,-54.27,99.11229,-2.962,-1.729,98.1,0,109.4,13.63,-2.22,10.0
"2010-03-24 00:46:30",1788851,14.85,47.75,3.355,0.735,-54.19,99.11341,-2.959,-1.719,98.1,0,109.4,13.64,-2.22,9.8
"2010-03-24 00:47:00",1788852,14.85,47.77,3.377,0.736,-54.18,99.11425,-2.957,-1.746,98.1,0,109.4,13.64,-2.22,9.8
"2010-03-24 00:47:30",1788853,14.85,48.2,2.611,0.736,-54.1,99.0984,-2.997,-1.753,98,0,109.4,13.64,-2.26,10.2
"2010-03-24 00:48:00",1788854,14.89,47.77,3.368,0.717,-54.17,99.0916,-3.015,-1.748,98.1,0,109.4,13.64,-2.27,9.8
"2010-03-24 00:48:30",1788855,14.85,47.97,2.784,0.737,-54.32,99.08592,-3.029,-1.765,98.1,0,109.4,13.64,-2.29,10.0
"2010-03-24 00:49:00",1788856,14.85,47.74,3.368,0.733,-54.19,99.08194,-3.039,-1.777,98,0,109.4,13.64,-2.30,9.7
"2010-03-24 00:49:30",1788857,14.85,47.97,3.25,0.735,-54.05,99.08138,-3.041,-1.792,98.1,0,109.4,13.64,-2.30,10.0
"2010-03-24 00:50:00",1788858,14.93,47.74,3.376,0.624,-54.19,99.08167,-3.04,-1.816,98,0,109.4,13.64,-2.30,9.7
"2010-03-24 00:50:30",1788859,14.85,47.71,3.382,0.735,-54.19,99.07515,-3.057,-1.816,98,0,109.4,13.64,-2.32,9.7
"2010-03-24 00:51:00",1788860,14.81,47.73,3.428,0.808,-54.19,99.06947,-3.071,-1.816,98,0,109.4,13.64,-2.33,9.7
"2010-03-24 00:51:30",1788861,14.81,48.54,1.54,0.808,-54.19,99.076,-3.054,-1.852,98.1,0,109.4,13.64,-2.31,10.5
"2010-03-24 00:52:00",1788862,14.93,47.72,3.354,0.628,-54.2,99.07996,-3.044,-1.844,98.1,0,109.4,13.65,-2.30,9.7
"2010-03-24 00:52:30",1788863,14.84,47.69,3.336,0.739,-54.28,99.07968,-3.045,-1.83,98,0,109.4,13.65,-2.30,9.7
"2010-03-24 00:53:00",1788864,14.85,47.69,3.369,0.732,-54.21,99.06579,-3.08,-1.844,98.1,0,109.4,13.65,-2.34,9.7
"2010-03-24 00:53:30",1788865,14.81,48.27,1.934,0.809,-54.21,99.05814,-3.1,-1.851,98,0,109.4,13.66,-2.36,10.3
"2010-03-24 00:54:00",1788866,14.88,47.86,2.775,0.717,-54.29,99.05247,-3.114,-1.865,98.1,0,109.4,13.66,-2.37,9.9
"2010-03-24 00:54:30",1788867,14.85,47.44,3.805,0.73,-54.22,99.04907,-3.123,-1.839,98.1,0,109.4,13.66,-2.38,9.4
"2010-03-24 00:55:00",1788868,14.85,47.86,2.81,0.731,-54.37,99.04879,-3.124,-1.876,98,0,109.4,13.66,-2.38,9.9
"2010-03-24 00:55:30",1788869,14.81,48.04,2.656,0.808,-54.16,99.05077,-3.119,-1.875,98,0,109.4,13.66,-2.38,10.0
"2010-03-24 00:56:00",1788870,14.89,47.83,2.813,0.714,-54.3,99.05332,-3.112,-1.869,98,0,109.4,13.66,-2.37,9.8
"2010-03-24 00:56:30",1788871,14.81,47.86,2.781,0.81,-54.3,99.05303,-3.113,-1.87,98,0,109.4,13.66,-2.37,9.9
"2010-03-24 00:57:00",1788872,14.86,47.6,3.46,0.731,-54.29,99.05049,-3.119,-1.879,98.1,0,109.4,13.66,-2.38,9.6
"2010-03-24 00:57:30",1788873,14.82,48.32,1.813,0.809,-54.2,99.04823,-3.125,-1.893,98,0,109.4,13.66,-2.38,10.3
"2010-03-24 00:58:00",1788874,14.9,47.7,3.346,0.712,-54.21,99.04794,-3.126,-1.886,98,0,109.4,13.66,-2.38,9.7
"2010-03-24 00:58:30",1788875,14.83,47.9,2.813,0.807,-54.28,99.04794,-3.126,-1.881,98,0,109.4,13.66,-2.38,9.9
"2010-03-24 00:59:00",1788876,14.83,47.89,2.818,0.808,-54.28,99.04794,-3.126,-1.887,98.1,0,109.4,13.66,-2.38,9.9
"2010-03-24 00:59:30",1788877,14.82,47.86,2.844,0.811,-54.14,99.04794,-3.126,-1.894,98,0,109.4,13.66,-2.38,9.9
"2010-03-24 01:00:00",1788878,14.9,48.06,2.692,0.713,-54.29,99.03689,-3.154,-1.91,98,0,109.4,13.66,-2.41,10.1
"2010-03-24 01:00:30",1788879,14.82,47.86,2.828,0.81,-54.29,99.0162,-3.207,-1.923,98,0,109.4,13.66,-2.47,9.9
"2010-03-24 01:01:00",1788880,14.82,48.43,1.573,0.811,-54.36,99.01393,-3.212,-1.94,98,0,109.4,13.66,-2.47,10.4
"2010-03-24 01:01:30",1788881,14.86,48.3,2.423,0.734,-54.21,99.01393,-3.212,-1.953,98,0,109.4,13.66,-2.47,10.3
"2010-03-24 01:02:00",1788882,14.94,47.68,3.349,0.629,-54.21,99.01393,-3.212,-1.937,98,0,109.4,13.66,-2.47,9.7
"2010-03-24 01:02:30",1788883,14.83,47.91,2.853,0.809,-54.27,99.01393,-3.212,-1.954,98,0,109.4,13.66,-2.47,9.9
"2010-03-24 01:03:00",1788884,14.88,47.86,3.258,0.734,-54.26,99.01393,-3.212,-1.962,98,0,109.4,13.66,-2.47,9.9
"2010-03-24 01:03:30",1788885,14.88,48.16,2.611,0.731,-54.12,99.00742,-3.229,-1.984,98,0,109.4,13.66,-2.49,10.2
"2010-03-24 01:04:00",1788886,14.96,47.92,2.82,0.622,-54.27,98.99438,-3.262,-2.001,98,0,109.4,13.66,-2.52,9.9
"2010-03-24 01:04:30",1788887,14.88,47.94,3.297,0.732,-54.26,98.9839,-3.289,-1.982,98,0,109.4,13.66,-2.55,9.9
"2010-03-24 01:05:00",1788888,14.88,48.15,2.603,0.737,-54.33,98.98022,-3.298,-2.015,98,0,109.4,13.66,-2.56,10.2
"2010-03-24 01:05:30",1788889,14.87,47.94,2.77,0.748,-54.19,98.97994,-3.299,-2.031,98,0,109.4,13.66,-2.56,9.9
"2010-03-24 01:06:00",1788890,14.91,48.32,1.83,0.717,-54.34,98.97994,-3.299,-2.037,98,0,109.4,13.66,-2.56,10.3
"2010-03-24 01:06:30",1788891,14.83,47.93,2.812,0.81,-54.27,98.97484,-3.312,-2.043,98,0,109.4,13.66,-2.57,9.9
"2010-03-24 01:07:00",1788892,14.83,48.33,1.831,0.811,-54.34,98.96378,-3.34,-2.085,98,0,109.4,13.66,-2.60,10.3
"2010-03-24 01:07:30",1788893,14.91,47.73,3.34,0.653,-54.13,98.95585,-3.36,-2.077,98,0,109.4,13.66,-2.62,9.7
"2010-03-24 01:08:00",1788894,14.91,48.09,2.763,0.716,-54.27,98.94763,-3.381,-2.065,98,0,109.4,13.66,-2.64,10.1
"2010-03-24 01:08:30",1788895,14.89,47.88,2.765,0.659,-54.36,98.94593,-3.386,-2.102,98,0,109.4,13.66,-2.65,9.9
"2010-03-24 01:09:00",1788896,14.86,47.7,3.324,0.736,-54.29,98.94593,-3.386,-2.096,98,0,109.4,13.66,-2.65,9.7
"2010-03-24 01:09:30",1788897,14.9,47.66,3.327,0.649,-54.15,98.94593,-3.386,-2.108,98,0,109.4,13.66,-2.65,9.7
"2010-03-24 01:10:00",1788898,14.9,48.28,1.86,0.715,-54.36,98.94593,-3.386,-2.113,98,0,109.4,13.66,-2.65,10.3
"2010-03-24 01:10:30",1788899,14.82,48.07,2.632,0.81,-54.29,98.94593,-3.386,-2.131,98,0,109.4,13.66,-2.65,10.1
"2010-03-24 01:11:00",1788900,14.81,48.05,2.69,0.824,-54.3,98.94593,-3.386,-2.131,98,0,109.4,13.66,-2.65,10.0
"2010-03-24 01:11:30",1788901,14.81,47.82,2.831,0.826,-54.16,98.94593,-3.386,-2.139,98,0,109.4,13.66,-2.65,9.8
"2010-03-24 01:12:00",1788902,14.93,48.04,2.617,0.627,-54.37,98.94593,-3.386,-2.139,98,0,109.4,13.66,-2.65,10.0
"2010-03-24 01:12:30",1788903,14.85,47.82,2.772,0.735,-54.38,98.94593,-3.386,-2.139,98,0,109.4,13.66,-2.65,9.8
"2010-03-24 01:13:00",1788904,14.85,47.82,2.742,0.734,-54.38,98.94593,-3.386,-2.148,98,0,109.4,13.66,-2.65,9.8
"2010-03-24 01:13:30",1788905,14.86,47.88,2.773,0.738,-54.22,98.94593,-3.386,-2.152,98,0,109.4,13.66,-2.65,9.9
"2010-03-24 01:14:00",1788906,14.9,48.29,1.817,0.714,-54.36,98.94593,-3.386,-2.139,98,0,109.4,13.66,-2.65,10.3
"2010-03-24 01:14:30",1788907,14.86,47.67,3.35,0.738,-54.29,98.94593,-3.386,-2.132,98,0,109.4,13.65,-2.65,9.7
"2010-03-24 01:15:00",1788908,14.9,47.69,3.329,0.649,-54.28,98.94593,-3.386,-2.161,98,0,109.4,13.65,-2.65,9.7
"2010-03-24 01:15:30",1788909,14.83,47.88,2.809,0.809,-54.14,98.94593,-3.386,-2.14,98,0,109.4,13.65,-2.65,9.9
"2010-03-24 01:16:00",1788910,14.9,48.07,2.659,0.716,-54.29,98.94593,-3.386,-2.135,98,0,109.5,13.65,-2.65,10.1
"2010-03-24 01:16:30",1788911,14.82,47.87,2.808,0.81,-54.29,98.94537,-3.387,-2.155,98,0,109.4,13.65,-2.65,9.9
"2010-03-24 01:17:00",1788912,14.86,48.07,2.138,0.733,-54.36,98.92864,-3.43,-2.159,98,0,109.4,13.65,-2.69,10.1
"2010-03-24 01:17:30",1788913,14.9,47.66,3.32,0.65,-54.15,98.91817,-3.456,-2.181,98,0,109.4,13.65,-2.72,9.7
"2010-03-24 01:18:00",1788914,14.98,47.88,3.184,0.516,-54.29,98.91476,-3.465,-2.194,98,0,109.4,13.65,-2.73,9.9
"2010-03-24 01:18:30",1788915,14.82,48.08,2.152,0.818,-54.36,98.91277,-3.47,-2.197,98,0,109.4,13.65,-2.73,10.1
"2010-03-24 01:19:00",1788916,14.83,47.91,2.812,0.809,-54.27,98.91193,-3.472,-2.179,97.9,0,109.4,13.65,-2.73,9.9
"2010-03-24 01:19:30",1788917,14.88,47.74,3.305,0.733,-54.12,98.91193,-3.472,-2.189,98,0,109.4,13.65,-2.73,9.7
"2010-03-24 01:20:00",1788918,14.92,48.34,1.887,0.719,-54.33,98.91193,-3.472,-2.195,98,0,109.4,13.65,-2.73,10.3
"2010-03-24 01:20:30",1788919,14.95,47.95,3.196,0.636,-54.26,98.91193,-3.472,-2.212,98,0,109.4,13.66,-2.73,10.0
"2010-03-24 01:21:00",1788920,14.84,48.09,2.71,0.824,-54.25,98.91023,-3.477,-2.205,98,0,109.4,13.66,-2.74,10.1
"2010-03-24 01:21:30",1788921,14.87,47.99,2.904,0.779,-54.09,98.88898,-3.531,-2.231,98,0,109.4,13.65,-2.79,10.0
"2010-03-24 01:22:00",1788922,14.97,48.09,2.986,0.626,-54.24,98.87793,-3.559,-2.256,97.9,0,109.4,13.65,-2.82,10.1
"2010-03-24 01:22:30",1788923,14.89,47.99,2.824,0.742,-54.24,98.87793,-3.559,-2.246,98,0,109.4,13.66,-2.82,10.0
"2010-03-24 01:23:00",1788924,14.93,47.8,3.337,0.657,-54.25,98.87793,-3.559,-2.271,97.9,0,109.4,13.66,-2.82,9.8
"2010-03-24 01:23:30",1788925,14.92,47.79,3.33,0.658,-54.18,98.87877,-3.557,-2.304,97.9,0,109.4,13.65,-2.82,9.8
"2010-03-24 01:24:00",1788926,14.96,48.2,2.628,0.636,-54.25,98.87849,-3.557,-2.306,97.9,0,109.4,13.66,-2.82,10.2
"2010-03-24 01:24:30",1788927,14.95,47.73,3.366,0.632,-54.26,98.87933,-3.555,-2.285,97.9,0,109.4,13.65,-2.82,9.7
"2010-03-24 01:25:00",1788928,14.88,48.16,2.101,0.739,-54.33,98.87904,-3.556,-2.298,97.9,0,109.4,13.66,-2.82,10.2
"2010-03-24 01:25:30",1788929,14.88,48.16,2.616,0.742,-54.19,98.87904,-3.556,-2.308,98,0,109.4,13.66,-2.82,10.2
"2010-03-24 01:26:00",1788930,14.95,47.94,2.785,0.631,-54.34,98.87876,-3.557,-2.303,97.9,0,109.4,13.67,-2.82,9.9
"2010-03-24 01:26:30",1788931,14.87,47.93,2.776,0.746,-54.34,98.86006,-3.604,-2.313,97.9,0,109.4,13.67,-2.87,9.9
"2010-03-24 01:27:00",1788932,14.87,47.92,2.781,0.744,-54.35,98.84814,-3.635,-2.339,97.9,0,109.4,13.67,-2.90,9.9
"2010-03-24 01:27:30",1788933,14.91,47.71,3.322,0.665,-54.14,98.84756,-3.636,-2.363,97.9,0,109.4,13.67,-2.90,9.7
"2010-03-24 01:28:00",1788934,14.91,48.3,1.945,0.72,-54.35,98.84729,-3.637,-2.37,97.9,0,109.4,13.67,-2.90,10.3
"2010-03-24 01:28:30",1788935,14.9,47.69,3.408,0.665,-54.28,98.85065,-3.628,-2.379,97.9,0,109.4,13.67,-2.89,9.7
"2010-03-24 01:29:00",1788936,14.98,47.68,3.355,0.512,-54.3,98.84812,-3.635,-2.372,97.9,0,109.4,13.67,-2.90,9.7
"2010-03-24 01:29:30",1788937,14.86,47.79,3.018,0.739,-54.14,98.8492,-3.632,-2.395,97.9,0,109.4,13.66,-2.89,9.8
"2010-03-24 01:30:00",1788938,14.96,48.35,2.435,0.626,-54.28,98.85849,-3.608,-2.397,97.9,0,109.3,13.66,-2.87,10.3
"2010-03-24 01:30:30",1788939,14.87,47.92,2.764,0.744,-54.27,98.85709,-3.612,-2.374,97.9,0,109.4,13.66,-2.87,9.9
"2010-03-24 01:31:00",1788940,14.92,47.74,3.334,0.654,-54.27,98.86929,-3.581,-2.382,97.9,0,109.4,13.66,-2.84,9.7
"2010-03-24 01:31:30",1788941,14.92,47.76,3.329,0.657,-54.19,98.89108,-3.525,-2.377,97.9,0,109.4,13.66,-2.79,9.8
"2010-03-24 01:32:00",1788942,15,47.96,3.215,0.541,-54.19,98.89671,-3.511,-2.347,97.9,0,109.3,13.66,-2.77,10.0
"2010-03-24 01:32:30",1788943,14.95,47.73,3.374,0.624,-54.28,98.89502,-3.515,-2.321,97.9,0,109.4,13.66,-2.78,9.7
"2010-03-24 01:33:00",1788944,14.88,48.01,2.646,0.736,-54.26,98.89867,-3.506,-2.325,98,0,109.4,13.66,-2.77,10.0
"2010-03-24 01:33:30",1788945,14.88,48.37,2.436,0.735,-54.19,98.908,-3.482,-2.303,98,0,109.4,13.66,-2.74,10.4
"2010-03-24 01:34:00",1788946,15.04,47.54,3.797,0.363,-54.34,98.93125,-3.423,-2.295,97.9,0,109.3,13.66,-2.68,9.5
"2010-03-24 01:34:30",1788947,14.87,47.94,2.82,0.755,-54.26,98.93492,-3.414,-2.252,98,0,109.4,13.66,-2.67,9.9
"2010-03-24 01:35:00",1788948,14.92,47.76,3.356,0.647,-54.27,98.94286,-3.394,-2.237,98,0,109.4,13.66,-2.65,9.8
"2010-03-24 01:35:30",1788949,14.92,47.81,3.323,0.65,-54.1,98.95618,-3.36,-2.223,98,0,109.4,13.66,-2.62,9.8
"2010-03-24 01:36:00",1788950,14.96,48.21,2.614,0.628,-54.32,98.97005,-3.324,-2.204,98,0,109.3,13.66,-2.58,10.2
"2010-03-24 01:36:30",1788951,14.89,48.04,2.778,0.743,-54.31,98.97033,-3.324,-2.157,98,0,109.4,13.66,-2.58,10.0
"2010-03-24 01:37:00",1788952,14.89,48.02,2.775,0.744,-54.32,98.97005,-3.324,-2.16,98,0,109.4,13.66,-2.58,10.0
"2010-03-24 01:37:30",1788953,14.89,48.02,2.787,0.745,-54.17,98.97061,-3.323,-2.16,98,0,109.4,13.66,-2.58,10.0
"2010-03-24 01:38:00",1788954,14.96,48.2,2.644,0.63,-54.32,98.97118,-3.321,-2.141,98,0,109.3,13.66,-2.58,10.2
"2010-03-24 01:38:30",1788955,14.92,47.79,3.318,0.663,-54.25,98.97089,-3.322,-2.137,98,0,109.4,13.66,-2.58,9.8
"2010-03-24 01:39:00",1788956,14.92,47.79,3.319,0.673,-54.18,98.97061,-3.323,-2.152,98,0,109.4,13.66,-2.58,9.8
"2010-03-24 01:39:30",1788957,15,47.57,3.804,0.515,-54.05,98.97089,-3.322,-2.139,98,0,109.4,13.66,-2.58,9.6
"2010-03-24 01:40:00",1788958,14.92,48.59,1.528,0.723,-54.33,98.97061,-3.323,-2.135,98,0,109.4,13.66,-2.58,10.6
"2010-03-24 01:40:30",1788959,14.91,47.75,3.346,0.662,-54.34,98.96098,-3.347,-2.129,98,0,109.4,13.66,-2.61,9.8
"2010-03-24 01:41:00",1788960,14.98,47.53,3.8,0.529,-54.2,98.94397,-3.391,-2.162,98,0,109.4,13.66,-2.65,9.5
"2010-03-24 01:41:30",1788961,14.95,47.7,3.401,0.626,-54.14,98.93745,-3.407,-2.166,98,0,109.4,13.67,-2.67,9.7
"2010-03-24 01:42:00",1788962,14.99,47.91,3.198,0.509,-54.28,98.93688,-3.409,-2.178,98,0,109.3,13.67,-2.67,9.9
"2010-03-24 01:42:30",1788963,14.91,47.72,3.322,0.652,-54.28,98.92101,-3.449,-2.206,98,0,109.4,13.68,-2.71,9.7
"2010-03-24 01:43:00",1788964,14.86,47.91,2.785,0.746,-54.36,98.90315,-3.495,-2.207,98,0,109.4,13.68,-2.75,9.9
"2010-03-24 01:43:30",1788965,14.94,47.48,3.776,0.553,-54.07,98.90259,-3.496,-2.239,97.9,0,109.4,13.68,-2.76,9.5
"2010-03-24 01:44:00",1788966,14.98,47.88,3.196,0.53,-54.22,98.90031,-3.502,-2.266,97.9,0,109.4,13.68,-2.76,9.9
"2010-03-24 01:44:30",1788967,14.85,47.85,2.85,0.755,-54.37,98.89662,-3.511,-2.267,97.9,0,109.4,13.68,-2.77,9.8
"2010-03-24 01:45:00",1788968,14.97,47.62,3.385,0.511,-54.31,98.90314,-3.495,-2.279,97.9,0,109.4,13.68,-2.75,9.6
"2010-03-24 01:45:30",1788969,14.94,47.46,3.796,0.545,-54.07,98.90371,-3.493,-2.279,97.9,0,109.4,13.68,-2.75,9.5
"2010-03-24 01:46:00",1788970,14.94,48.07,2.623,0.625,-54.37,98.90371,-3.493,-2.281,97.9,0,109.3,13.67,-2.75,10.1
"2010-03-24 01:46:30",1788971,14.87,47.89,2.78,0.739,-54.35,98.90398,-3.493,-2.269,97.9,0,109.4,13.67,-2.75,9.9
"2010-03-24 01:47:00",1788972,14.86,47.89,2.783,0.743,-54.36,98.9054,-3.489,-2.259,97.9,0,109.4,13.67,-2.75,9.9
"2010-03-24 01:47:30",1788973,14.87,47.91,2.78,0.747,-54.2,98.90398,-3.493,-2.258,97.9,0,109.4,13.66,-2.75,9.9